ASTRA 1KR

Last updated on Fri Sep 11 2026 00:02:55 GMT+0000 (Coordinated Universal Time)

1 29055U 06012A 26253.51604288 .00000100 00000+0 00000+0 0 9991 2 29055 0.6888 82.7126 0003434 89.4214 22.1788 1.00271841 46553
UTC large
Height (km)
Speed (km/s)
/
Latitude / Longitude
Inclination (degrees)
Orbital Period (minutes)
Azimuth
Elevation
Range (km)
Doppler Factor

Next 0 passes for location: London (51.5072 / 0.1276)

No passes found over London.
ASTRA 1KR